Volver al catálogo

FENGYUN 1C DEB

ActivoSSO
NORAD 37928·DEBRIS·🇨🇳 China

Lanzado May 10, 1999 desde Taiyuan Satellite Launch Center

Loading…

Próximos Pases (próximas 24 horas)

TLE

ActualizadoSource: Space-Track

Época: Sep 14, 2026, 03:32 UTC

1 37928U 99025EPD 26257.14755615  .00000986  00000-0  33252-3 0  9991
2 37928  98.8822 146.4279 0070772 301.7829  57.6476 14.37979339851491

Sigue FENGYUN 1C DEB en tiempo real con AllMySat

Download on the App Store